Tracking 18628 objects as of 25-April-2017
HD Live streaming from Space Station
objects crossing your sky now

EGG

Track EGG now!
10-day predictions
EGG is classified as:


NORAD ID: 41933
Int'l Code: 1998-067KV
Perigee: 396.4 km
Apogee: 404.2 km
Inclination: 51.6 °
Period: 92.4 minutes
Semi major axis: 6771 km
RCS: Unknown
Launch date: November 20, 1998
Source: Japan (JPN)
Launch site: TYURATAM MISSILE AND SPACE COMPLEX (TTMTR)
Uplink (MHz):
Downlink (MHz):
Beacon (MHz):
Mode:
Call sign:
Status:

Your satellite tracking list
Your tracking list is empty





NASA's NSSDC Master Catalog

Two Line Element Set (TLE):
1 41933U 98067KV  17113.88949478 +.00035586 +00000-0 +46834-3 0  9995
2 41933 051.6395 307.4686 0005780 075.4756 284.6878 15.58092953015072
Source of the keplerian elements: AFSPC